Theta_e
305 306 306 306 307 307 307 307 307 307 307 307 308 309 309 309 310 311 312 313 314 317 317 317 317 311 305 303 302 301 301 300 300 301 301 301 301 300 302 302 298 296 294
304 304 304 304 305 306 306 307 307 307 307 307 307 307 307 308 308 308 310 312 313 314 315 313 311 305 303 302 301 301 300 299 299 299 299 299 299 300 299 298 295 293 290
302 302 303 303 303 304 304 304 305 306 306 307 307 307 307 307 307 307 307 309 311 312 313 311 307 302 302 302 301 300 300 299 298 298 298 298 298 298 297 296 293 290 288
300 300 300 301 300 301 302 302 303 303 303 304 305 306 306 306 305 305 306 307 307 309 311 310 306 302 301 301 300 299 299 299 298 298 296 296 296 296 295 294 291 289 287
298 298 298 299 299 299 299 299 300 300 301 302 302 302 303 304 305 304 303 302 303 305 306 308 305 302 301 299 298 298 298 297 297 297 297 293 294 294 294 292 289 288 287
296 296 295 295 294 294 294 294 294 294 295 296 298 300 301 301 302 304 303 301 301 301 301 303 302 300 301 300 299 296 296 296 296 297 296 294 292 292 292 290 289 287 286
293 293 293 293 293 293 294 294 293 293 293 293 293 294 296 300 301 301 302 302 300 301 300 300 299 299 299 298 297 295 294 293 294 300 295 295 291 291 291 289 287 287 286
292 293 293 292 292 292 292 292 292 292 292 292 293 293 294 294 296 300 300 300 300 300 299 299 298 298 298 297 296 300 296 293 295 292 294 293 289 289 288 288 287 286 284
292 291 291 291 291 292 292 292 292 292 292 292 292 292 292 293 293 295 297 297 298 298 298 298 297 296 296 295 294 294 296 295 291 291 289 289 287 286 286 286 285 284 283
291 291 291 291 290 290 290 290 290 289 290 290 291 290 290 291 292 293 294 294 295 295 296 296 297 296 295 293 291 291 291 291 290 289 287 286 285 285 284 284 284 284 283
290 289 289 288 288 287 287 287 288 288 288 289 289 290 290 291 292 292 292 292 293 293 293 294 295 295 294 292 291 290 289 289 289 287 285 285 283 283 283 283 282 282 281
288 287 287 286 286 286 286 286 286 286 287 288 288 289 290 290 291 291 291 290 291 290 290 291 291 291 290 290 289 289 288 286 287 285 284 282 282 282 281 281 281 280 280
286 285 285 285 285 285 285 285 285 285 285 285 285 285 287 287 286 286 286 288 288 288 289 289 289 289 288 287 287 287 287 286 285 282 282 281 281 280 279 279 279 278 278
284 284 284 283 284 283 283 283 283 283 282 281 280 280 281 283 282 283 284 284 285 286 287 287 288 288 287 286 286 285 285 284 284 283 281 280 279 278 278 278 278 280 278
283 282 282 282 282 282 282 282 281 280 278 278 279 279 279 280 281 281 283 284 285 285 286 286 287 287 286 284 284 284 282 282 280 280 280 279 278 277 277 280 280 278 276
281 281 281 281 281 281 281 282 281 280 279 276 277 277 278 278 279 280 281 283 284 285 286 286 287 285 285 284 283 283 283 281 281 280 280 278 278 278 279 278 277 276 275
280 280 281 281 280 280 280 279 280 283 280 278 276 276 276 277 278 278 280 282 283 285 285 286 286 285 284 284 283 282 282 282 281 280 279 278 278 277 277 276 276 275 273
280 280 280 280 280 279 279 278 277 276 277 280 279 276 276 275 276 277 279 281 283 284 285 285 285 285 282 283 283 282 281 281 280 279 278 277 277 277 276 276 275 273 273
280 279 279 279 278 278 277 277 276 276 275 275 277 277 275 275 274 276 278 279 280 282 283 283 284 284 283 282 282 281 281 280 280 279 277 276 276 276 275 275 274 272 272
279 279 278 278 278 277 277 276 275 274 274 274 274 274 274 273 274 275 276 277 278 279 280 280 282 282 283 283 282 280 279 279 278 278 277 276 276 275 274 274 272 272 271
278 278 277 277 276 276 275 274 274 274 274 273 273 273 271 272 273 273 274 275 276 277 278 279 280 281 281 281 281 280 278 278 277 277 276 276 275 274 274 273 272 271 270
277 276 276 275 275 275 274 274 273 273 272 272 272 272 272 272 272 273 273 273 274 275 276 276 277 278 278 279 279 279 278 277 277 276 275 275 274 274 273 272 271 270 270
275 275 274 274 274 273 273 273 272 271 271 271 271 271 271 271 271 272 272 272 272 273 274 275 275 276 276 277 277 276 276 276 275 275 274 274 273 273 272 271 270 269 269
274 273 273 272 272 272 272 271 271 270 270 270 270 270 270 270 270 270 271 271 271 272 273 273 274 274 275 275 275 274 274 274 274 273 273 273 272 272 270 269 269 269 268
272 271 271 271 270 270 270 270 270 269 269 269 269 269 269 269 269 269 269 270 270 270 270 271 272 272 273 273 273 273 273 273 273 272 272 272 271 270 269 269 268 268 267
271 270 270 269 269 269 268 268 269 269 268 268 268 268 268 268 268 269 269 269 269 269 269 270 270 270 270 271 271 271 271 271 271 271 271 269 269 269 268 268 267 267 267
Wind_Speed
15 17 17 16 18 20 22 24 26 27 28 29 30 32 33 34 34 35 37 38 39 41 41 41 39 36 37 37 36 35 35 34 35 33 30 28 28 26 26 24 23 21 21
18 18 19 20 20 21 22 24 26 29 30 33 34 35 36 36 35 37 39 39 41 43 43 41 40 39 40 39 38 37 36 34 35 36 35 32 32 29 26 26 24 23 23
23 23 23 23 24 25 26 27 28 30 32 34 36 36 35 36 37 38 38 39 41 43 45 43 42 42 43 42 42 41 38 36 36 36 38 36 34 32 32 30 27 25 24
29 30 30 30 29 29 28 29 29 30 31 34 36 39 41 39 37 37 39 40 41 43 46 46 45 46 45 46 44 43 40 39 37 37 39 38 37 35 33 31 30 28 26
29 30 31 31 31 31 32 32 33 33 35 36 38 39 42 42 42 41 40 41 43 44 45 47 48 48 47 47 46 45 44 42 40 38 41 41 41 40 39 37 32 27 25
28 28 28 29 29 29 30 32 34 35 37 38 39 41 43 44 45 43 40 43 44 47 50 50 49 49 48 49 49 48 46 45 44 41 42 44 46 43 38 35 33 31 28
24 25 28 31 34 36 37 38 40 42 43 44 44 44 45 46 44 44 43 43 44 48 50 50 52 52 50 50 50 48 47 45 44 45 46 45 50 46 37 35 33 30 28
26 29 32 36 38 40 42 45 48 51 53 53 53 50 49 49 46 44 43 42 43 48 50 51 52 53 54 52 49 53 49 48 49 48 46 43 43 37 34 31 29 29 26
31 33 36 40 43 46 47 48 49 53 54 55 55 56 53 53 48 46 44 43 43 46 47 51 52 52 54 53 52 52 51 51 49 44 43 41 39 35 33 31 32 31 28
36 38 39 41 43 46 47 48 48 49 52 52 55 53 52 52 50 46 43 42 44 44 46 49 53 56 55 53 46 50 51 49 45 42 39 39 37 34 32 30 28 30 28
37 38 39 40 41 43 45 45 47 48 49 49 51 52 51 48 48 44 40 39 42 44 47 48 53 53 53 52 46 48 52 48 43 38 38 38 37 34 33 30 29 27 26
37 37 37 39 41 42 44 45 45 46 48 49 49 50 49 47 46 44 39 35 37 40 47 49 51 50 46 43 42 46 43 46 38 39 38 37 35 33 32 28 27 26 25
36 37 38 38 38 39 42 43 44 43 44 46 45 47 50 49 47 44 43 38 34 35 39 47 52 49 41 38 39 43 40 44 41 40 39 38 34 31 28 26 24 22 19
36 37 37 39 40 39 40 40 41 41 41 41 41 44 48 50 46 42 43 45 41 37 32 38 48 49 38 36 37 38 40 42 42 40 39 35 32 30 28 24 23 23 21
33 35 36 38 39 41 40 40 40 37 32 34 37 40 44 48 48 41 41 44 44 41 33 37 44 42 34 33 36 37 39 39 35 31 34 33 31 29 27 27 25 22 21
34 34 35 37 38 39 41 43 39 38 37 29 29 30 38 37 41 42 40 39 38 35 33 40 43 41 39 33 38 41 41 36 32 29 30 31 32 33 30 26 23 21 21
30 32 34 35 37 38 40 41 46 46 40 38 35 34 33 36 38 39 39 36 35 29 31 39 41 41 38 33 38 39 41 37 31 32 33 34 33 29 26 25 22 20 23
29 31 34 35 36 37 38 38 39 41 45 47 44 41 38 37 37 36 35 32 27 24 26 32 38 38 34 33 33 36 38 37 33 31 31 30 27 26 25 24 21 21 22
30 31 33 34 34 36 37 38 38 40 40 42 45 43 40 37 35 35 31 26 29 28 24 29 32 38 33 29 28 31 33 35 34 30 28 25 24 23 23 21 19 20 21
29 30 32 33 34 35 35 36 37 38 39 40 40 40 41 40 41 38 32 28 29 30 30 26 24 32 33 27 21 24 28 30 30 27 25 23 22 21 21 18 17 19 21
30 31 31 32 33 34 34 35 36 37 38 38 38 36 32 33 35 33 31 27 27 26 24 19 21 25 28 22 18 16 17 21 24 24 23 22 21 20 19 17 16 19 19
30 31 32 32 33 34 34 34 34 35 36 37 37 35 32 31 30 29 26 25 23 21 18 15 16 19 19 18 14 12 12 15 18 20 19 18 17 17 17 16 18 20 20
30 31 33 34 34 35 35 35 34 34 34 34 34 33 31 30 28 27 24 22 20 17 14 10 9 11 12 12 11 11 11 12 13 14 16 17 17 17 16 18 20 20 22
31 33 35 36 37 37 36 36 35 34 33 33 32 31 30 28 27 26 24 22 19 17 14 11 8 8 8 10 12 13 13 14 16 18 19 19 18 16 17 20 21 21 21
33 35 36 37 37 37 37 36 36 35 34 33 32 31 29 27 26 24 22 21 20 18 15 13 12 12 13 13 14 15 16 17 17 18 17 16 13 17 19 20 20 20 21
36 37 37 37 36 36 35 35 35 35 35 33 32 31 29 28 25 24 22 20 19 17 16 14 13 11 11 12 12 13 13 13 13 12 11 13 17 18 19 19 19 20 20
Wind_Direction
1 354 343 333 326 324 322 320 319 318 316 312 309 305 302 299 296 292 289 283 276 270 265 263 261 257 255 254 252 250 247 244 246 248 247 245 244 242 239 239 242 241 244
355 349 343 340 334 327 321 315 312 310 310 310 310 307 303 299 296 294 291 286 280 275 273 268 264 259 257 256 254 252 249 246 246 249 248 243 241 240 237 237 236 235 238
346 344 343 341 336 334 330 326 320 314 310 305 300 299 299 298 294 291 288 284 281 278 275 271 266 263 261 258 254 251 248 245 244 247 249 243 237 232 230 231 231 232 235
342 341 339 338 338 335 331 327 323 321 316 311 308 305 300 293 286 284 282 280 278 275 273 271 265 263 262 261 257 255 250 245 244 245 248 246 238 228 227 229 229 229 232
336 336 335 334 333 330 326 323 320 317 315 313 311 308 304 298 294 287 281 279 277 273 270 268 265 264 263 262 259 255 249 244 239 239 246 243 237 225 224 224 226 230 232
331 331 331 330 331 333 333 331 329 327 323 318 313 309 306 303 301 293 286 282 277 273 272 268 264 262 260 261 261 257 255 250 243 239 243 245 244 235 227 224 223 220 225
336 336 334 331 330 328 326 325 324 322 320 319 318 313 305 300 301 298 292 283 275 271 269 267 266 262 258 257 255 253 251 247 246 253 244 242 243 238 231 225 225 228 228
332 331 327 324 322 321 319 318 317 316 315 314 312 310 306 300 297 296 297 286 278 273 269 267 265 264 262 256 251 252 249 249 252 244 245 243 245 241 235 232 230 226 224
326 324 323 320 319 319 318 316 315 313 311 310 309 308 307 301 298 294 291 288 282 278 273 269 265 265 264 260 253 247 247 247 241 240 241 238 237 235 227 220 215 216 218
324 325 323 321 319 319 319 319 319 317 314 313 310 310 308 306 303 299 295 288 283 279 278 274 269 263 258 256 252 251 243 239 235 235 233 233 231 227 226 220 221 220 218
321 323 324 323 323 322 321 321 320 318 316 315 313 310 310 308 305 303 299 292 285 282 279 277 276 273 265 257 249 244 245 243 234 231 229 230 228 223 221 216 215 218 220
324 325 325 325 324 323 320 320 319 319 317 317 317 314 312 312 310 307 303 296 290 282 278 279 279 277 272 263 248 244 239 242 235 226 224 223 223 219 214 211 213 216 218
326 327 326 325 325 326 325 325 324 325 324 322 321 318 316 315 314 313 312 308 302 295 283 275 273 274 276 264 250 243 235 236 229 223 220 221 218 215 212 209 208 211 214
327 328 329 329 330 331 331 331 330 331 329 326 321 317 316 313 314 314 311 310 310 307 297 272 266 266 266 263 248 231 232 232 229 221 220 218 214 211 210 208 208 216 216
329 331 334 334 335 334 334 336 335 334 329 317 313 314 314 312 311 311 301 299 298 301 299 279 263 254 248 232 229 219 219 220 224 220 217 214 212 210 207 217 218 212 214
335 336 338 338 338 338 336 333 336 336 333 323 316 316 314 310 312 313 310 296 291 290 288 270 260 251 246 235 224 219 219 220 227 226 223 215 212 213 219 217 215 210 218
338 339 340 340 340 339 338 337 334 332 335 333 332 328 324 318 317 316 314 309 296 283 276 266 257 253 244 237 227 226 225 222 228 226 224 219 218 220 218 213 208 211 221
341 341 339 339 338 337 336 335 334 334 333 332 334 337 335 329 326 325 324 314 311 296 278 279 255 253 240 244 242 235 230 226 226 228 225 224 222 220 214 209 206 215 224
339 337 334 334 335 334 334 333 333 333 332 331 332 335 338 335 332 329 325 326 325 312 304 305 266 250 248 247 246 243 241 235 230 229 223 221 222 220 215 213 211 222 226
336 336 336 335 334 333 333 332 331 331 331 332 333 336 335 337 333 335 334 325 322 320 318 313 283 258 249 242 245 245 238 234 229 228 228 231 228 221 217 214 220 228 229
336 337 335 334 333 333 331 330 329 328 329 329 330 334 335 330 333 333 334 335 333 329 325 302 284 261 249 236 230 231 234 234 232 231 232 229 218 215 218 219 228 234 232
335 334 333 333 331 330 329 327 326 326 326 326 328 331 334 333 333 332 333 333 335 333 326 300 274 260 252 240 232 226 225 230 230 228 221 215 216 221 226 229 236 237 236
332 332 332 331 329 327 326 327 326 325 325 325 327 329 333 334 333 331 329 327 329 331 335 320 286 267 250 238 233 236 239 233 226 221 219 223 227 230 233 240 242 240 239
335 334 332 331 329 328 326 326 325 325 325 324 326 328 329 331 331 330 327 322 318 317 311 307 296 273 252 240 234 232 229 227 225 226 231 235 234 232 240 241 241 242 240
335 332 330 329 329 328 327 326 325 326 327 327 327 327 327 327 327 327 326 323 321 316 310 302 288 271 258 251 248 246 245 245 244 243 240 236 239 244 244 242 241 240 239
331 329 327 327 326 327 327 327 327 326 326 326 327 327 326 325 325 324 323 321 318 315 312 306 297 285 274 264 256 250 246 243 241 243 251 251 246 245 244 242 240 240 239